When you browse on this site, cookies collect data to enhance your experience and personalize the content and advertising you see.
Visit our Privacy Policy to learn more. By continuing to use the site, you agree to this use of cookies and data.
  • In Czech Republic
  • List of Countries
  • For 7 days
  • Water Temperature
  • Satellite Maps
  • Weather Map
  • Weather Widgets
  • user-avatar
    Login

    Hourly Weather Usvica

    Today, 16 November, Friday

    Time Temperature Precipitation Wind Pressure Humidity
    00:00 0°C° 0 mm 1 mps 767 mmHg 93%
    01:00 0°C° 0 mm 1 mps 767 mmHg 93%
    02:00 0°C° 0 mm 0 mps 768 mmHg 94%
    03:00 0°C° 0 mm 1 mps 768 mmHg 94%
    04:00 0°C° 0 mm 1 mps 768 mmHg 94%
    05:00 0°C° 0 mm 1 mps 768 mmHg 94%
    06:00 0°C° 0 mm 1 mps 769 mmHg 94%
    07:00 0°C° 0 mm 1 mps 769 mmHg 94%
    08:00 -1°C° 0 mm 1 mps 769 mmHg 94%
    09:00 0°C° 0 mm 1 mps 770 mmHg 92%
    10:00 +1°C° 0 mm 1 mps 770 mmHg 90%
    11:00 +2°C° 0 mm 1 mps 770 mmHg 87%
    12:00 +2°C° 0 mm 1 mps 770 mmHg 87%
    13:00 +2°C° 0 mm 1 mps 770 mmHg 86%
    14:00 +2°C° 0 mm 1 mps 771 mmHg 86%
    15:00 +1°C° 0 mm 1 mps 771 mmHg 87%
    16:00 0°C° 0 mm 1 mps 771 mmHg 87%
    17:00 -1°C° 0 mm 1 mps 771 mmHg 87%
    18:00 -1°C° 0 mm 1 mps 771 mmHg 86%
    19:00 -2°C° 0 mm 1 mps 771 mmHg 84%
    20:00 -2°C° 0 mm 1 mps 771 mmHg 83%
    21:00 -2°C° 0 mm 1 mps 771 mmHg 82%
    22:00 -2°C° 0 mm 1 mps 771 mmHg 80%
    23:00 -3°C° 0 mm 1 mps 771 mmHg 79%

    Tomorrow, 17 November, Saturday

    Time Temperature Precipitation Wind Pressure Humidity
    00:00 -3°C° 0 mm 1 mps 771 mmHg 78%
    01:00 -3°C° 0 mm 1 mps 771 mmHg 77%
    02:00 -3°C° 0 mm 1 mps 771 mmHg 76%
    03:00 -3°C° 0 mm 1 mps 770 mmHg 75%
    04:00 -3°C° 0 mm 1 mps 770 mmHg 75%
    05:00 -3°C° 0 mm 1 mps 770 mmHg 74%
    06:00 -3°C° 0 mm 1 mps 770 mmHg 74%
    07:00 -3°C° 0 mm 1 mps 770 mmHg 75%
    08:00 -3°C° 0 mm 1 mps 769 mmHg 75%
    09:00 -1°C° 0 mm 1 mps 769 mmHg 74%
    10:00 -2°C° 0 mm 2 mps 769 mmHg 74%
    11:00 +1°C° 0 mm 2 mps 769 mmHg 73%
    12:00 +1°C° 0 mm 2 mps 768 mmHg 74%
    13:00 +1°C° 0 mm 2 mps 767 mmHg 76%
    14:00 +2°C° 0 mm 2 mps 767 mmHg 77%
    15:00 0°C° 0 mm 3 mps 766 mmHg 79%
    16:00 0°C° 0 mm 3 mps 766 mmHg 81%
    17:00 0°C° 0 mm 3 mps 765 mmHg 83%
    18:00 -1°C° 0 mm 3 mps 765 mmHg 85%
    19:00 -1°C° 0 mm 3 mps 764 mmHg 88%
    20:00 -1°C° 0 mm 3 mps 763 mmHg 90%
    21:00 -1°C° 0 mm 3 mps 762 mmHg 91%
    22:00 -1°C° 0 mm 4 mps 762 mmHg 92%
    23:00 -1°C° 0 mm 4 mps 761 mmHg 93%

    Day after tomorrow, 18 November, Sunday

    Time Temperature Precipitation Wind Pressure Humidity
    00:00 -1°C° 0.1 mm 4 mps 760 mmHg 93%
    01:00 0°C° 0.1 mm 4 mps 759 mmHg 94%
    02:00 0°C° 0.1 mm 4 mps 759 mmHg 95%
    03:00 0°C° 0.1 mm 4 mps 758 mmHg 95%
    04:00 0°C° 0.1 mm 4 mps 757 mmHg 96%
    05:00 0°C° 0.1 mm 4 mps 756 mmHg 96%
    06:00 0°C° 0.1 mm 4 mps 756 mmHg 96%
    07:00 0°C° 0.1 mm 4 mps 755 mmHg 96%
    08:00 0°C° 0.1 mm 4 mps 755 mmHg 96%
    09:00 +1°C° 0.2 mm 4 mps 755 mmHg 95%
    10:00 +2°C° 0.2 mm 3 mps 754 mmHg 95%
    11:00 +2°C° 0.2 mm 3 mps 754 mmHg 94%
    12:00 +2°C° 0.1 mm 3 mps 754 mmHg 94%
    13:00 +3°C° 0.1 mm 3 mps 754 mmHg 94%
    14:00 +3°C° 0.1 mm 3 mps 754 mmHg 94%
    15:00 +3°C° 0.1 mm 4 mps 754 mmHg 93%
    16:00 +1°C° 0.1 mm 4 mps 754 mmHg 93%
    17:00 +1°C° 0.1 mm 4 mps 754 mmHg 92%
    18:00 +1°C° 0.2 mm 5 mps 754 mmHg 90%
    19:00 +1°C° 0.2 mm 5 mps 754 mmHg 88%
    20:00 0°C° 0.2 mm 5 mps 754 mmHg 86%
    21:00 0°C° 0.2 mm 5 mps 754 mmHg 87%
    22:00 0°C° 0.2 mm 5 mps 754 mmHg 87%
    23:00 -1°C° 0.2 mm 4 mps 754 mmHg 87%

    19 November, Monday

    Time Temperature Precipitation Wind Pressure Humidity
    00:00 -1°C° 0.2 mm 4 mps 754 mmHg 88%
    01:00 -1°C° 0.2 mm 4 mps 754 mmHg 89%
    02:00 -1°C° 0.2 mm 4 mps 755 mmHg 89%
    03:00 0°C° 0.1 mm 4 mps 755 mmHg 90%
    04:00 0°C° 0.1 mm 4 mps 755 mmHg 91%
    05:00 0°C° 0.1 mm 4 mps 755 mmHg 91%
    06:00 0°C° 0.1 mm 4 mps 755 mmHg 91%
    07:00 0°C° 0.1 mm 4 mps 756 mmHg 91%
    08:00 0°C° 0.1 mm 4 mps 756 mmHg 92%
    09:00 0°C° 0.1 mm 4 mps 756 mmHg 91%
    10:00 0°C° 0.1 mm 4 mps 757 mmHg 90%
    11:00 0°C° 0.1 mm 4 mps 757 mmHg 90%
    12:00 0°C° 0.1 mm 4 mps 757 mmHg 90%
    13:00 +1°C° 0.1 mm 4 mps 757 mmHg 89%
    14:00 +1°C° 0.1 mm 4 mps 757 mmHg 89%
    15:00 0°C° 0.1 mm 4 mps 757 mmHg 90%
    16:00 0°C° 0.1 mm 4 mps 757 mmHg 90%
    17:00 0°C° 0.1 mm 4 mps 757 mmHg 91%
    18:00 0°C° 0.2 mm 4 mps 757 mmHg 91%
    19:00 0°C° 0.2 mm 4 mps 757 mmHg 91%
    20:00 0°C° 0.2 mm 4 mps 757 mmHg 91%
    21:00 0°C° 0.1 mm 3 mps 758 mmHg 92%
    22:00 0°C° 0.1 mm 3 mps 758 mmHg 92%
    23:00 +1°C° 0.1 mm 2 mps 758 mmHg 93%

    20 November, Tuesday

    Time Temperature Precipitation Wind Pressure Humidity
    00:00 0°C° 0.1 mm 3 mps 758 mmHg 93%
    01:00 0°C° 0.1 mm 3 mps 758 mmHg 93%
    02:00 0°C° 0.1 mm 3 mps 758 mmHg 93%
    03:00 0°C° 0.1 mm 3 mps 758 mmHg 93%
    04:00 -1°C° 0.1 mm 3 mps 758 mmHg 93%
    05:00 -1°C° 0.1 mm 3 mps 758 mmHg 93%
    06:00 -1°C° 0 mm 2 mps 758 mmHg 93%
    07:00 -2°C° 0 mm 2 mps 758 mmHg 92%
    08:00 -2°C° 0 mm 2 mps 758 mmHg 92%
    09:00 -2°C° 0 mm 2 mps 758 mmHg 89%
    10:00 -2°C° 0 mm 2 mps 758 mmHg 85%
    11:00 -2°C° 0 mm 2 mps 758 mmHg 82%
    12:00 -2°C° 0 mm 2 mps 757 mmHg 82%
    13:00 -2°C° 0 mm 2 mps 757 mmHg 81%
    14:00 -2°C° 0 mm 2 mps 757 mmHg 81%
    15:00 -2°C° 0 mm 2 mps 757 mmHg 84%
    16:00 -3°C° 0 mm 2 mps 756 mmHg 88%
    17:00 -4°C° 0 mm 2 mps 756 mmHg 91%
    18:00 -4°C° 0 mm 2 mps 756 mmHg 92%
    19:00 -3°C° 0 mm 2 mps 756 mmHg 92%
    20:00 -3°C° 0 mm 2 mps 756 mmHg 92%
    21:00 -3°C° 0 mm 2 mps 756 mmHg 93%
    22:00 -3°C° 0 mm 2 mps 756 mmHg 93%
    23:00 -3°C° 0 mm 2 mps 756 mmHg 93%

    21 November, Wednesday

    Time Temperature Precipitation Wind Pressure Humidity
    00:00 -2°C° 0 mm 2 mps 756 mmHg 93%
    01:00 -2°C° 0 mm 2 mps 756 mmHg 93%
    02:00 -2°C° 0 mm 2 mps 756 mmHg 92%
    03:00 -2°C° 0 mm 2 mps 756 mmHg 92%
    04:00 -2°C° 0 mm 3 mps 756 mmHg 92%
    05:00 -2°C° 0 mm 3 mps 756 mmHg 92%
    06:00 -2°C° 0 mm 3 mps 756 mmHg 91%
    07:00 -2°C° 0 mm 3 mps 756 mmHg 90%
    08:00 -2°C° 0 mm 3 mps 756 mmHg 89%
    09:00 -2°C° 0 mm 4 mps 756 mmHg 88%
    10:00 -2°C° 0 mm 4 mps 756 mmHg 88%
    11:00 -2°C° 0 mm 4 mps 757 mmHg 87%
    12:00 -2°C° 0 mm 4 mps 757 mmHg 87%
    13:00 -2°C° 0 mm 4 mps 756 mmHg 87%
    14:00 -2°C° 0 mm 4 mps 756 mmHg 87%
    15:00 -2°C° 0 mm 4 mps 756 mmHg 88%
    16:00 -2°C° 0 mm 4 mps 757 mmHg 88%
    17:00 -2°C° 0 mm 5 mps 757 mmHg 89%
    18:00 -2°C° 0 mm 5 mps 757 mmHg 88%
    19:00 -2°C° 0 mm 5 mps 757 mmHg 88%
    20:00 -2°C° 0 mm 5 mps 757 mmHg 87%
    21:00 -2°C° 0 mm 5 mps 757 mmHg 87%
    22:00 -2°C° 0 mm 5 mps 757 mmHg 87%
    23:00 -1°C° 0 mm 5 mps 757 mmHg 87%
    Show more